Location: Bremen
(53.0793°N, 8.8017°E)
Time: 19:02:59
(UTC+02:00)

Vanguard 2 - All Passes

Search period start: 23 April 2024 00:00
Search period end: 03 May 2024 00:00
Orbit: 552 x 2916 km, 32.9° (Epoch: 23 April)

Date Brightness Start Highest point End Pass type
(mag) Time Alt. Az. Time Alt. Az. Time Alt. Az.
23 Apr - 01:43:29 10° SSW 01:54:01 25° SSE 02:06:21 10° ESE visible
23 Apr - 03:49:25 10° SW 04:03:00 35° S 04:17:43 10° ESE visible
23 Apr - 05:58:24 10° WSW 06:12:41 34° SSW 06:26:19 10° SE daylight
23 Apr - 08:10:31 10° WSW 08:21:25 20° SW 08:31:11 10° S daylight
23 Apr - 23:56:44 10° SSE 00:00:31 11° SE 00:04:37 10° ESE visible
24 Apr - 01:56:55 10° SSW 02:07:59 28° SSE 02:21:09 10° ESE visible
24 Apr - 04:03:33 10° SW 04:17:10 36° S 04:32:01 10° ESE visible
24 Apr - 06:12:58 10° WSW 06:26:47 31° SSW 06:40:04 10° SSE daylight
24 Apr - 08:26:09 10° WSW 08:35:13 17° SW 08:43:34 10° S daylight
25 Apr - 00:07:52 10° SSE 00:14:14 15° SE 00:21:35 10° ESE visible
25 Apr - 02:10:37 10° SSW 02:22:00 30° SSE 02:35:47 10° ESE visible
25 Apr - 04:17:47 10° WSW 04:31:20 36° S 04:46:10 10° SE visible
25 Apr - 06:27:37 10° WSW 06:40:49 28° SSW 06:53:37 10° SSE daylight
25 Apr - 08:42:47 10° WSW 08:48:57 13° SW 08:54:49 10° SSW daylight
26 Apr - 00:20:20 10° S 00:27:59 18° SE 00:37:15 10° ESE visible
26 Apr - 02:24:28 10° SW 02:36:04 32° SSE 02:50:15 10° ESE visible
26 Apr - 04:32:07 10° WSW 04:45:30 35° S 05:00:12 10° SE visible
26 Apr - 06:42:29 10° WSW 06:54:48 25° SSW 07:06:52 10° SSE daylight
27 Apr - 00:33:24 10° S 00:41:49 22° SSE 00:52:23 10° ESE visible
27 Apr - 02:38:28 10° SW 02:50:10 34° S 03:04:36 10° ESE visible
27 Apr - 04:46:33 10° WSW 04:59:39 33° SSW 05:14:03 10° SE visible
27 Apr - 06:57:35 10° WSW 07:08:44 21° SW 07:19:43 10° S daylight
28 Apr - 00:46:49 10° SSW 00:55:44 24° SSE 01:07:12 10° ESE visible
28 Apr - 02:52:36 10° SW 03:04:18 34° S 03:18:49 10° ESE visible
28 Apr - 05:01:04 10° WSW 05:13:46 31° SSW 05:27:42 10° SE visible
28 Apr - 07:13:08 10° WSW 07:22:35 17° SW 07:31:59 10° S daylight
28 Apr - 22:59:39 10° SSE 23:02:38 11° SE 23:05:54 10° ESE visible
29 Apr - 01:00:28 10° SSW 01:09:41 27° SSE 01:21:48 10° ESE visible
29 Apr - 03:06:49 10° WSW 03:18:26 34° S 03:32:55 10° SE visible
29 Apr - 05:15:44 10° WSW 05:27:50 28° SSW 05:41:07 10° SSE visible
29 Apr - 07:29:34 10° WSW 07:36:23 14° SW 07:43:12 10° SSW daylight
29 Apr - 23:11:19 10° SSE 23:16:22 14° SE 23:22:22 10° ESE visible
30 Apr - 01:14:19 10° SW 01:23:42 29° SSE 01:36:14 10° ESE visible
30 Apr - 03:21:08 10° WSW 03:32:36 33° S 03:46:51 10° SE visible
30 Apr - 05:30:34 10° WSW 05:41:51 24° SSW 05:54:14 10° SSE daylight
30 Apr - 23:24:08 10° S 23:30:09 17° SE 23:37:44 10° ESE visible
01 May - 01:28:18 10° SW 01:37:46 30° SSE 01:50:32 10° ESE visible
01 May - 03:35:33 10° WSW 03:46:45 31° S 04:00:36 10° SE visible
01 May - 05:45:41 10° WSW 05:55:50 21° SSW 06:06:54 10° S daylight
01 May - 23:37:25 10° SSW 23:44:01 20° SSE 23:52:38 10° ESE visible
02 May - 01:42:24 10° SW 01:51:52 30° S 02:04:42 10° ESE visible
02 May - 03:50:04 10° WSW 04:00:52 28° SSW 04:14:09 10° SE visible
02 May - 06:01:15 10° WSW 06:09:46 17° SW 06:18:56 10° S daylight
